SCP
0 0 0 0 0 0 0 0 0 0 0 0 0 0 0 0 0 0 0 0 0 0 0 -0 -0 0 0 0 0 0 0 -0 0 0 0 0 0 0 -0 0 0 -0 -0 -0 -0 -0 -0
-0 -0 -0 0 0 0 0 0 0 0 0 0 0 0 0 0 0 0 0 0 0 0 0 0 0 -0 0 0 0 0 0 0 0 0 0 0 0 0 0 0 -0 0 -0 -0 -0 -0 -0
-0 -0 -0 -0 0 0 0 0 0 0 0 0 0 0 0 0 0 0 0 0 0 0 0 0 0 0 0 0 0 0 0 0 0 0 0 0 0 0 0 -0 0 0 -0 -0 -0 -0 -0
-0 -0 -0 -0 -0 -0 0 0 0 0 0 0 0 0 0 0 0 0 0 0 0 0 0 0 0 0 0 0 0 0 0 0 0 0 0 0 0 0 0 0 0 -0 0 -0 0 -0 0
-0 -0 -0 -0 -0 -0 -0 0 0 0 0 0 0 0 0 0 0 0 0 0 0 0 0 0 0 0 0 0 -0 0 0 0 -0 0 0 0 0 0 0 -0 -0 0 -0 -0 0 0 -0
-0 -0 -0 -0 -0 -0 -0 -0 -0 -0 0 0 0 0 0 0 0 0 0 0 0 0 0 0 0 0 0 -0 -0 0 0 0 0 0 0 0 0 -0 -0 -0 -0 0 -0 0 -0 0 -0
-0 -0 -0 -0 -0 -0 -0 -0 -0 -0 0 0 0 0 0 0 0 0 0 0 0 0 0 0 0 0 0 0 0 0 0 -0 0 0 0 0 -0 -0 0 0 0 -0 -0 -0 -0 0 -0
-0 -0 -0 -0 -0 -0 -0 -0 -0 -0 0 0 0 0 0 0 0 0 0 0 0 0 0 -0 0 0 0 0 -0 0 0 0 0 0 0 -0 -0 0 0 0 -0 -0 0 -0 0 0 -0
-0 -0 -0 -0 -0 -0 -0 -0 -0 -0 0 0 0 0 0 0 0 0 0 0 0 0 0 0 0 0 -0 0 0 -0 0 0 0 -0 -0 0 -0 0 0 -0 0 -0 0 -0 -0 -0 0
-0 -0 -0 -0 -0 -0 -0 -0 -0 -0 -0 0 0 0 0 0 0 0 0 0 0 0 0 0 0 0 0 0 0 0 0 0 0 -0 -0 -0 -0 0 -0 -0 -0 -0 0 -0 -0 -0 -0
-0 -0 -0 -0 -0 -0 -0 -0 -0 -0 -0 0 0 0 0 0 0 0 0 0 0 0 0 0 0 0 0 0 0 0 0 0 0 0 0 0 -0 0 -0 -0 0 -0 -0 -0 0 -0 -0
-0 -0 -0 -0 -0 -0 -0 -0 -0 -0 -0 0 0 0 0 0 0 0 0 0 0 0 0 0 0 0 0 0 0 0 0 0 0 0 0 -0 0 -0 -0 -0 0 -0 -0 -0 -0 -0 -0
-0 -0 -0 -0 -0 -0 -0 -0 -0 -0 -0 0 0 0 0 0 0 0 0 0 0 0 0 0 0 -0 0 0 0 -0 -0 -0 0 0 -0 -0 -0 -0 -0 -0 -0 -0 -0 -0 -0 -0 0
-0 -0 -0 -0 -0 -0 -0 -0 -0 -0 -0 0 0 0 0 0 0 0 0 0 0 0 -0 0 0 -0 0 0 0 -0 -0 -0 -0 -0 -0 -0 -0 -0 -0 -0 -0 -0 -0 -0 0 0 0
-0 -0 -0 -0 -0 -0 -0 -0 -0 -0 -0 0 0 0 0 0 0 0 0 0 0 0 0 0 0 -0 0 0 0 0 0 -0 -0 -0 -0 0 0 0 0 0 -0 0 -0 -0 -0 -0 0
-0 -0 -0 -0 -0 -0 -0 -0 -0 -0 -0 0 0 0 0 0 0 0 0 0 0 0 0 0 -0 0 0 -0 0 -0 0 0 0 0 -0 0 0 0 0 -0 -0 -0 -0 -0 0 0 -0
-0 -0 -0 -0 -0 -0 -0 -0 -0 -0 -0 0 0 0 0 0 0 0 0 0 0 0 0 0 0 0 0 -0 -0 -0 -0 0 0 0 -0 -0 0 0 0 -0 -0 -0 -0 0 0 -0 0
-0 -0 -0 -0 -0 -0 -0 -0 0 0 -0 0 0 0 0 0 0 0 0 0 0 0 0 0 0 0 0 -0 0 -0 0 0 0 0 0 0 -0 0 -0 0 0 0 -0 -0 -0 0 -0
-0 -0 -0 -0 -0 -0 -0 -0 0 0 0 0 0 0 0 0 0 0 0 0 0 0 0 0 0 0 0 0 0 0 0 0 0 -0 0 0 0 0 0 0 -0 0 -0 0 -0 0 0
-0 -0 -0 -0 -0 -0 -0 -0 0 0 0 0 0 0 0 0 0 0 -0 0 0 0 0 0 0 0 0 0 0 0 0 0 0 0 0 0 -0 -0 0 0 0 0 0 0 0 0 0
0 -0 0 0 -0 -0 0 -0 0 0 0 0 0 0 0 0 0 0 0 0 0 0 0 0 0 -0 0 0 0 0 0 0 0 0 0 0 0 0 0 0 0 0 0 0 0 0 0
0 0 0 0 0 0 0 0 -0 -0 0 0 0 0 0 0 0 0 0 0 0 0 0 0 0 0 0 0 0 0 0 0 0 0 0 0 0 0 0 0 0 -0 0 0 0 0 0
0 0 0 0 0 0 0 0 -0 -0 0 0 0 0 0 0 0 0 0 0 0 0 0 0 0 0 0 0 0 0 0 0 0 0 0 0 0 0 0 0 0 0 0 0 0 0 0
0 0 0 0 0 0 0 0 0 0 0 0 0 0 0 0 0 0 0 0 0 0 0 0 0 0 0 0 0 0 0 0 0 0 0 0 0 0 0 0 0 0 0 0 0 0 0
0 0 0 0 0 0 0 0 0 0 0 0 0 0 0 0 0 0 0 0 0 0 0 0 0 0 0 0 0 0 0 0 0 0 0 0 0 0 0 0 0 0 0 0 0 0 0
0 0 0 0 0 0 0 0 0 0 0 0 0 0 0 0 0 0 0 0 0 0 0 0 0 0 0 0 0 0 0 0 0 0 0 0 0 0 0 0 0 0 0 0 0 0 0
0 0 0 0 0 0 0 0 0 0 0 0 0 0 0 0 0 0 0 0 0 0 0 0 0 0 0 0 0 0 0 0 0 0 0 0 0 0 0 0 0 0 0 0 0 0 0
0 0 0 0 0 0 0 0 0 0 0 0 0 0 0 0 0 0 0 0 0 0 0 0 0 0 0 0 0 0 0 0 0 0 0 0 0 0 0 0 0 0 0 0 0 0 0
0 0 0 0 0 0 0 0 0 0 0 0 0 0 0 0 0 0 0 0 0 0 0 0 0 0 0 0 0 0 0 0 0 0 0 0 0 0 0 0 0 0 0 0 0 0 0
Wind_Speed_500mb
26 25 25 25 26 26 27 28 29 29 27 23 20 21 21 20 19 17 16 16 15 16 16 15 14 11 9 18 16 5 12 8 5 8 10 9 14 14 12 7 8 16 9 9 13 2 1
28 27 26 26 26 27 28 29 30 31 30 23 18 18 20 20 19 17 16 15 15 15 14 15 14 12 9 31 7 10 7 9 9 11 7 9 8 16 12 7 14 4 5 9 10 8 2
29 29 28 27 27 28 29 29 30 30 30 25 17 15 17 19 19 17 15 14 13 13 14 15 13 12 19 19 12 14 9 12 12 11 14 4 11 25 7 18 4 14 21 8 16 11 8
31 30 30 29 28 28 29 29 29 30 30 26 17 12 15 18 18 16 14 13 12 12 14 13 12 10 25 22 17 20 15 17 15 13 11 8 13 20 23 2 20 19 14 5 19 5 10
34 33 31 30 30 29 29 29 30 29 29 26 18 11 13 17 17 16 14 11 10 11 12 12 7 11 26 19 23 22 22 21 23 17 14 12 20 24 17 30 26 11 13 9 9 5 10
36 35 34 33 31 30 30 30 30 29 28 26 18 10 12 16 18 18 15 11 8 9 10 11 13 15 23 29 28 22 24 16 22 23 23 26 29 25 21 23 18 16 16 9 5 8 15
36 36 35 35 33 31 31 32 32 29 28 25 18 9 11 17 20 21 21 17 8 9 28 22 20 18 10 8 16 25 27 26 23 27 29 28 23 26 17 18 16 10 18 18 9 6 10
37 36 36 37 36 33 32 33 34 31 29 25 18 7 11 18 21 23 27 23 9 7 25 33 13 22 11 10 22 31 28 32 35 32 33 21 26 9 10 8 18 19 16 13 7 5 15
37 36 36 37 38 37 34 33 34 32 29 24 17 4 13 20 22 25 24 14 6 5 17 38 24 28 20 19 23 34 33 39 32 35 34 27 16 19 9 23 19 30 4 19 21 21 27
37 37 37 38 39 40 37 34 34 33 29 23 16 5 17 22 13 16 21 16 10 6 12 27 24 24 20 21 14 30 38 30 23 36 24 34 35 3 18 22 20 29 20 16 20 25 9
37 37 38 38 41 42 40 35 34 33 29 22 14 10 25 35 18 16 13 9 11 8 14 31 31 23 27 25 35 21 32 20 22 22 11 21 24 18 25 27 9 24 13 16 18 25 26
37 37 38 39 41 44 42 36 35 34 29 21 9 15 29 27 23 11 8 6 8 15 9 20 23 27 28 26 21 30 28 21 17 14 22 33 7 20 28 21 9 21 21 30 22 22 18
36 38 38 40 42 45 43 38 37 35 29 19 5 19 35 29 10 11 7 13 14 18 32 24 33 36 33 23 20 30 32 32 20 19 26 32 33 24 30 30 27 19 34 19 19 14 10
33 38 39 40 42 45 44 39 38 35 27 14 7 20 30 33 11 9 9 19 23 19 28 32 28 32 26 25 26 30 27 27 30 22 28 19 31 39 38 25 38 27 31 16 11 13 16
33 37 40 41 43 46 44 40 39 35 23 2 10 16 19 21 23 12 22 23 6 18 15 24 32 30 25 25 11 24 29 28 27 23 29 13 10 8 6 19 25 18 17 19 23 14 12
34 35 39 41 43 45 44 41 38 34 19 11 16 14 19 22 21 11 19 28 6 16 11 16 25 25 26 31 20 23 25 23 17 19 33 3 8 17 17 15 21 29 21 14 9 4 16
38 35 37 41 42 44 45 42 39 30 12 14 16 19 16 23 16 21 19 7 6 12 15 16 21 20 19 27 31 27 28 10 18 25 21 26 19 17 14 21 21 19 25 17 17 16 15
40 36 36 39 41 43 43 41 39 29 6 19 14 9 26 26 22 30 23 5 5 10 17 12 17 14 18 28 28 24 8 3 7 10 23 25 19 21 28 13 11 24 29 22 17 13 19
41 38 35 37 39 41 42 39 38 30 8 14 13 15 23 26 14 18 20 13 15 14 16 17 19 13 5 15 15 13 11 18 6 17 9 6 18 25 24 29 25 21 30 21 31 24 25
41 38 36 35 37 38 39 36 36 29 9 13 14 10 20 31 41 27 27 26 25 15 8 12 5 12 14 9 10 12 12 6 8 12 11 10 30 35 25 7 23 15 18 17 26 24 29
40 36 36 33 33 36 37 34 33 30 8 9 15 3 14 17 27 25 15 22 24 18 19 19 15 27 28 18 19 17 15 16 12 10 11 17 26 31 26 18 13 29 31 27 26 28 29
39 36 33 31 29 32 33 32 31 26 4 4 14 11 11 17 14 22 14 20 28 20 11 27 21 20 8 13 3 10 4 5 10 20 21 17 25 22 28 32 39 32 31 34 33 36 35
39 35 30 28 26 27 30 30 30 26 8 4 11 13 14 12 17 19 22 29 26 6 8 24 17 14 15 19 13 12 10 14 9 14 20 14 24 25 32 27 37 30 30 23 29 22 23
38 34 29 25 25 23 24 26 25 26 21 10 14 10 17 16 14 16 1 16 16 16 12 10 10 21 15 8 2 11 13 10 10 20 20 22 24 20 27 31 36 26 13 9 16 20 24
36 33 28 24 23 20 19 21 21 19 19 6 13 5 12 20 17 9 12 16 10 12 16 14 10 13 13 9 13 15 17 23 25 12 20 26 20 24 25 27 30 26 9 7 15 16 15
33 31 27 24 21 18 15 17 18 17 16 9 10 8 9 18 5 18 11 14 15 18 13 16 10 9 5 10 12 16 22 24 5 9 7 14 12 20 22 23 24 23 17 12 9 17 21
29 29 25 23 20 18 13 14 15 15 15 12 4 13 5 20 8 7 8 7 10 7 15 19 11 10 9 14 16 20 21 6 12 20 15 11 12 19 18 19 6 17 13 11 15 10 15
26 27 21 24 19 18 13 12 13 14 14 8 5 15 1 16 7 3 6 6 6 13 12 26 8 13 11 12 15 16 9 12 10 11 7 14 11 15 12 18 14 20 10 11 13 16 21
23 18 22 24 20 18 15 11 11 10 11 6 3 15 6 8 11 3 1 1 4 7 17 7 10 9 14 6 3 10 8 11 14 12 7 8 8 12 13 10 6 11 11 12 22 29 32
Wind_Direction_500mb
4 2 1 358 355 353 352 351 349 343 338 321 289 264 252 247 244 241 243 244 245 245 238 229 228 232 241 241 256 205 171 192 183 289 287 311 308 287 276 357 144 5 44 121 122 263 293
3 359 358 354 352 350 349 348 349 346 343 334 302 265 247 239 237 236 237 238 239 239 231 221 220 217 235 253 182 167 177 205 219 242 240 291 6 327 319 43 0 83 273 298 112 123 222
4 360 357 354 351 350 347 348 348 348 345 342 317 272 244 231 228 227 229 230 231 230 223 216 212 216 251 248 200 205 212 210 223 243 242 244 321 280 279 154 59 284 259 186 71 50 327
6 2 358 355 352 350 347 348 347 348 346 345 329 281 242 225 219 217 217 219 221 219 213 207 202 208 251 217 209 223 221 223 224 230 255 281 302 283 271 242 205 246 237 269 95 277 123
8 6 2 357 354 350 347 348 347 347 347 346 336 292 237 217 208 202 201 201 205 207 201 185 176 212 249 199 211 210 212 219 207 218 233 267 271 283 188 239 206 211 152 40 132 148 298
10 7 5 0 356 351 350 349 345 347 345 345 339 298 230 207 195 188 182 174 176 180 176 168 236 234 234 209 200 199 204 211 209 210 223 234 245 231 223 247 23 49 337 66 287 46 329
9 8 6 3 359 354 350 348 345 345 344 344 340 299 222 197 188 181 165 138 156 204 205 192 197 231 133 170 211 210 203 206 218 215 225 198 257 237 48 28 340 304 289 317 311 344 283
7 5 5 4 1 356 350 345 345 345 343 344 342 297 204 187 182 180 184 213 8 21 199 223 234 238 238 219 201 201 196 211 207 218 224 189 244 30 42 293 288 294 276 287 5 28 266
3 3 2 2 1 357 350 346 344 344 342 342 339 275 187 177 179 188 188 212 231 252 246 189 217 209 197 202 217 187 193 204 205 227 213 236 193 67 256 258 246 271 318 5 328 296 245
359 0 0 0 358 357 351 344 342 342 341 340 335 214 174 159 162 179 218 230 229 260 248 148 197 214 188 210 224 176 194 193 203 217 217 220 263 113 256 247 273 294 27 330 309 293 356
356 358 358 358 357 356 351 345 342 340 338 337 327 192 174 160 153 182 155 180 234 214 216 150 162 144 184 213 130 185 190 215 220 232 263 215 231 238 242 260 7 298 3 295 293 277 267
354 354 356 356 356 355 351 347 344 341 338 333 305 188 178 187 178 167 195 249 174 233 155 152 147 180 180 214 188 152 179 225 265 236 214 269 220 270 247 266 264 282 281 258 233 250 263
352 352 353 355 355 354 352 349 345 341 338 331 241 187 184 169 172 202 237 188 225 257 140 151 169 170 192 174 158 173 190 197 208 208 223 216 241 225 235 262 247 230 254 253 232 216 142
348 350 350 353 353 354 352 351 348 343 340 333 184 179 185 184 207 210 198 231 253 106 187 158 169 176 199 164 170 184 190 204 222 259 278 209 200 213 214 230 263 241 275 280 253 273 93
346 347 349 350 352 354 353 353 351 347 345 10 154 171 188 203 188 202 234 232 19 177 122 156 161 183 195 177 201 198 213 219 194 222 264 192 153 90 242 256 244 234 247 357 312 203 240
344 344 347 348 351 353 353 353 354 351 349 152 133 173 177 189 191 207 242 266 80 16 311 182 184 201 187 184 209 204 185 210 212 207 255 312 170 193 145 210 231 272 336 258 318 345 287
345 342 343 346 349 352 353 353 355 355 354 164 156 197 186 177 183 226 239 151 154 176 235 225 244 192 223 180 214 193 177 116 224 178 228 264 257 152 180 216 211 194 234 241 285 318 316
342 340 341 343 346 351 354 353 355 357 16 163 262 198 165 168 207 227 239 148 49 234 184 230 293 255 249 168 208 200 200 165 103 277 206 234 287 241 219 81 319 296 306 297 272 245 256
335 337 337 338 343 348 353 354 355 357 354 216 246 110 171 187 227 207 241 216 235 212 195 198 218 255 163 187 203 240 187 69 192 237 332 295 240 254 239 198 201 241 248 252 281 299 282
330 332 331 333 339 345 352 354 355 354 338 216 277 157 164 212 257 287 201 210 201 211 280 257 277 209 208 163 245 185 157 121 193 244 19 302 269 278 295 211 256 250 227 251 280 286 302
324 324 328 327 335 341 349 354 356 353 340 203 238 297 156 189 225 236 257 214 220 177 235 212 220 211 208 199 195 192 148 136 179 141 218 246 271 276 301 300 259 286 292 290 271 276 275
318 317 321 321 327 338 347 353 357 359 62 205 302 325 209 300 201 212 147 225 231 197 203 195 244 217 259 274 244 178 210 253 206 171 240 255 274 283 284 290 288 262 276 286 280 278 279
312 312 312 314 320 333 343 353 359 9 71 296 315 289 280 172 211 212 213 226 220 202 226 293 228 178 192 55 31 17 328 324 345 267 283 284 287 291 277 282 293 280 270 289 293 292 308
304 305 302 307 311 325 337 349 358 8 22 82 326 300 272 249 228 220 322 204 230 203 258 177 257 235 77 125 220 254 270 263 276 276 277 279 273 278 277 279 268 268 52 327 304 307 297
294 294 294 299 298 316 328 341 350 359 5 30 341 309 287 275 199 160 228 191 183 170 204 146 71 74 123 190 253 237 243 230 245 253 299 284 274 270 272 262 277 271 111 345 350 324 358
284 285 287 287 287 304 314 330 342 348 356 17 319 338 280 296 112 355 198 200 193 185 155 130 121 115 203 270 249 261 267 293 277 205 195 306 267 260 251 267 282 63 66 19 4 280 34
275 276 279 277 283 295 295 314 329 342 349 351 269 340 280 269 67 309 293 279 302 226 196 146 154 179 245 262 254 268 270 11 272 269 239 229 258 242 241 255 244 54 12 335 271 33 349
265 269 274 274 278 288 277 294 316 336 348 8 253 328 228 273 80 351 343 343 275 260 286 112 200 215 241 257 264 278 239 264 258 278 313 260 262 263 224 280 265 22 292 337 11 323 333
261 267 269 272 272 278 268 270 297 321 343 18 56 328 248 255 23 197 200 70 34 14 338 197 6 342 11 271 307 299 251 251 279 270 166 259 341 339 338 33 113 341 337 341 319 312 310
Wind_Speed_850mb
26 25 25 25 26 26 27 28 29 29 27 23 20 21 21 20 19 17 16 16 15 16 16 15 14 11 9 18 16 5 12 8 5 8 10 9 14 14 12 7 8 16 9 9 13 2 1
28 27 26 26 26 27 28 29 30 31 30 23 18 18 20 20 19 17 16 15 15 15 14 15 14 12 9 31 7 10 7 9 9 11 7 9 8 16 12 7 14 4 5 9 10 8 2
29 29 28 27 27 28 29 29 30 30 30 25 17 15 17 19 19 17 15 14 13 13 14 15 13 12 19 19 12 14 9 12 12 11 14 4 11 25 7 18 4 14 21 8 16 11 8
31 30 30 29 28 28 29 29 29 30 30 26 17 12 15 18 18 16 14 13 12 12 14 13 12 10 25 22 17 20 15 17 15 13 11 8 13 20 23 2 20 19 14 5 19 5 10
34 33 31 30 30 29 29 29 30 29 29 26 18 11 13 17 17 16 14 11 10 11 12 12 7 11 26 19 23 22 22 21 23 17 14 12 20 24 17 30 26 11 13 9 9 5 10
36 35 34 33 31 30 30 30 30 29 28 26 18 10 12 16 18 18 15 11 8 9 10 11 13 15 23 29 28 22 24 16 22 23 23 26 29 25 21 23 18 16 16 9 5 8 15
36 36 35 35 33 31 31 32 32 29 28 25 18 9 11 17 20 21 21 17 8 9 28 22 20 18 10 8 16 25 27 26 23 27 29 28 23 26 17 18 16 10 18 18 9 6 10
37 36 36 37 36 33 32 33 34 31 29 25 18 7 11 18 21 23 27 23 9 7 25 33 13 22 11 10 22 31 28 32 35 32 33 21 26 9 10 8 18 19 16 13 7 5 15
37 36 36 37 38 37 34 33 34 32 29 24 17 4 13 20 22 25 24 14 6 5 17 38 24 28 20 19 23 34 33 39 32 35 34 27 16 19 9 23 19 30 4 19 21 21 27
37 37 37 38 39 40 37 34 34 33 29 23 16 5 17 22 13 16 21 16 10 6 12 27 24 24 20 21 14 30 38 30 23 36 24 34 35 3 18 22 20 29 20 16 20 25 9
37 37 38 38 41 42 40 35 34 33 29 22 14 10 25 35 18 16 13 9 11 8 14 31 31 23 27 25 35 21 32 20 22 22 11 21 24 18 25 27 9 24 13 16 18 25 26
37 37 38 39 41 44 42 36 35 34 29 21 9 15 29 27 23 11 8 6 8 15 9 20 23 27 28 26 21 30 28 21 17 14 22 33 7 20 28 21 9 21 21 30 22 22 18
36 38 38 40 42 45 43 38 37 35 29 19 5 19 35 29 10 11 7 13 14 18 32 24 33 36 33 23 20 30 32 32 20 19 26 32 33 24 30 30 27 19 34 19 19 14 10
33 38 39 40 42 45 44 39 38 35 27 14 7 20 30 33 11 9 9 19 23 19 28 32 28 32 26 25 26 30 27 27 30 22 28 19 31 39 38 25 38 27 31 16 11 13 16
33 37 40 41 43 46 44 40 39 35 23 2 10 16 19 21 23 12 22 23 6 18 15 24 32 30 25 25 11 24 29 28 27 23 29 13 10 8 6 19 25 18 17 19 23 14 12
34 35 39 41 43 45 44 41 38 34 19 11 16 14 19 22 21 11 19 28 6 16 11 16 25 25 26 31 20 23 25 23 17 19 33 3 8 17 17 15 21 29 21 14 9 4 16
38 35 37 41 42 44 45 42 39 30 12 14 16 19 16 23 16 21 19 7 6 12 15 16 21 20 19 27 31 27 28 10 18 25 21 26 19 17 14 21 21 19 25 17 17 16 15
40 36 36 39 41 43 43 41 39 29 6 19 14 9 26 26 22 30 23 5 5 10 17 12 17 14 18 28 28 24 8 3 7 10 23 25 19 21 28 13 11 24 29 22 17 13 19
41 38 35 37 39 41 42 39 38 30 8 14 13 15 23 26 14 18 20 13 15 14 16 17 19 13 5 15 15 13 11 18 6 17 9 6 18 25 24 29 25 21 30 21 31 24 25
41 38 36 35 37 38 39 36 36 29 9 13 14 10 20 31 41 27 27 26 25 15 8 12 5 12 14 9 10 12 12 6 8 12 11 10 30 35 25 7 23 15 18 17 26 24 29
40 36 36 33 33 36 37 34 33 30 8 9 15 3 14 17 27 25 15 22 24 18 19 19 15 27 28 18 19 17 15 16 12 10 11 17 26 31 26 18 13 29 31 27 26 28 29
39 36 33 31 29 32 33 32 31 26 4 4 14 11 11 17 14 22 14 20 28 20 11 27 21 20 8 13 3 10 4 5 10 20 21 17 25 22 28 32 39 32 31 34 33 36 35
39 35 30 28 26 27 30 30 30 26 8 4 11 13 14 12 17 19 22 29 26 6 8 24 17 14 15 19 13 12 10 14 9 14 20 14 24 25 32 27 37 30 30 23 29 22 23
38 34 29 25 25 23 24 26 25 26 21 10 14 10 17 16 14 16 1 16 16 16 12 10 10 21 15 8 2 11 13 10 10 20 20 22 24 20 27 31 36 26 13 9 16 20 24
36 33 28 24 23 20 19 21 21 19 19 6 13 5 12 20 17 9 12 16 10 12 16 14 10 13 13 9 13 15 17 23 25 12 20 26 20 24 25 27 30 26 9 7 15 16 15
33 31 27 24 21 18 15 17 18 17 16 9 10 8 9 18 5 18 11 14 15 18 13 16 10 9 5 10 12 16 22 24 5 9 7 14 12 20 22 23 24 23 17 12 9 17 21
29 29 25 23 20 18 13 14 15 15 15 12 4 13 5 20 8 7 8 7 10 7 15 19 11 10 9 14 16 20 21 6 12 20 15 11 12 19 18 19 6 17 13 11 15 10 15
26 27 21 24 19 18 13 12 13 14 14 8 5 15 1 16 7 3 6 6 6 13 12 26 8 13 11 12 15 16 9 12 10 11 7 14 11 15 12 18 14 20 10 11 13 16 21
23 18 22 24 20 18 15 11 11 10 11 6 3 15 6 8 11 3 1 1 4 7 17 7 10 9 14 6 3 10 8 11 14 12 7 8 8 12 13 10 6 11 11 12 22 29 32
Wind_Direction_850mb
4 2 1 358 355 353 352 351 349 343 338 321 289 264 252 247 244 241 243 244 245 245 238 229 228 232 241 241 256 205 171 192 183 289 287 311 308 287 276 357 144 5 44 121 122 263 293
3 359 358 354 352 350 349 348 349 346 343 334 302 265 247 239 237 236 237 238 239 239 231 221 220 217 235 253 182 167 177 205 219 242 240 291 6 327 319 43 0 83 273 298 112 123 222
4 360 357 354 351 350 347 348 348 348 345 342 317 272 244 231 228 227 229 230 231 230 223 216 212 216 251 248 200 205 212 210 223 243 242 244 321 280 279 154 59 284 259 186 71 50 327
6 2 358 355 352 350 347 348 347 348 346 345 329 281 242 225 219 217 217 219 221 219 213 207 202 208 251 217 209 223 221 223 224 230 255 281 302 283 271 242 205 246 237 269 95 277 123
8 6 2 357 354 350 347 348 347 347 347 346 336 292 237 217 208 202 201 201 205 207 201 185 176 212 249 199 211 210 212 219 207 218 233 267 271 283 188 239 206 211 152 40 132 148 298
10 7 5 0 356 351 350 349 345 347 345 345 339 298 230 207 195 188 182 174 176 180 176 168 236 234 234 209 200 199 204 211 209 210 223 234 245 231 223 247 23 49 337 66 287 46 329
9 8 6 3 359 354 350 348 345 345 344 344 340 299 222 197 188 181 165 138 156 204 205 192 197 231 133 170 211 210 203 206 218 215 225 198 257 237 48 28 340 304 289 317 311 344 283
7 5 5 4 1 356 350 345 345 345 343 344 342 297 204 187 182 180 184 213 8 21 199 223 234 238 238 219 201 201 196 211 207 218 224 189 244 30 42 293 288 294 276 287 5 28 266
3 3 2 2 1 357 350 346 344 344 342 342 339 275 187 177 179 188 188 212 231 252 246 189 217 209 197 202 217 187 193 204 205 227 213 236 193 67 256 258 246 271 318 5 328 296 245
359 0 0 0 358 357 351 344 342 342 341 340 335 214 174 159 162 179 218 230 229 260 248 148 197 214 188 210 224 176 194 193 203 217 217 220 263 113 256 247 273 294 27 330 309 293 356
356 358 358 358 357 356 351 345 342 340 338 337 327 192 174 160 153 182 155 180 234 214 216 150 162 144 184 213 130 185 190 215 220 232 263 215 231 238 242 260 7 298 3 295 293 277 267
354 354 356 356 356 355 351 347 344 341 338 333 305 188 178 187 178 167 195 249 174 233 155 152 147 180 180 214 188 152 179 225 265 236 214 269 220 270 247 266 264 282 281 258 233 250 263
352 352 353 355 355 354 352 349 345 341 338 331 241 187 184 169 172 202 237 188 225 257 140 151 169 170 192 174 158 173 190 197 208 208 223 216 241 225 235 262 247 230 254 253 232 216 142
348 350 350 353 353 354 352 351 348 343 340 333 184 179 185 184 207 210 198 231 253 106 187 158 169 176 199 164 170 184 190 204 222 259 278 209 200 213 214 230 263 241 275 280 253 273 93
346 347 349 350 352 354 353 353 351 347 345 10 154 171 188 203 188 202 234 232 19 177 122 156 161 183 195 177 201 198 213 219 194 222 264 192 153 90 242 256 244 234 247 357 312 203 240
344 344 347 348 351 353 353 353 354 351 349 152 133 173 177 189 191 207 242 266 80 16 311 182 184 201 187 184 209 204 185 210 212 207 255 312 170 193 145 210 231 272 336 258 318 345 287
345 342 343 346 349 352 353 353 355 355 354 164 156 197 186 177 183 226 239 151 154 176 235 225 244 192 223 180 214 193 177 116 224 178 228 264 257 152 180 216 211 194 234 241 285 318 316
342 340 341 343 346 351 354 353 355 357 16 163 262 198 165 168 207 227 239 148 49 234 184 230 293 255 249 168 208 200 200 165 103 277 206 234 287 241 219 81 319 296 306 297 272 245 256
335 337 337 338 343 348 353 354 355 357 354 216 246 110 171 187 227 207 241 216 235 212 195 198 218 255 163 187 203 240 187 69 192 237 332 295 240 254 239 198 201 241 248 252 281 299 282
330 332 331 333 339 345 352 354 355 354 338 216 277 157 164 212 257 287 201 210 201 211 280 257 277 209 208 163 245 185 157 121 193 244 19 302 269 278 295 211 256 250 227 251 280 286 302
324 324 328 327 335 341 349 354 356 353 340 203 238 297 156 189 225 236 257 214 220 177 235 212 220 211 208 199 195 192 148 136 179 141 218 246 271 276 301 300 259 286 292 290 271 276 275
318 317 321 321 327 338 347 353 357 359 62 205 302 325 209 300 201 212 147 225 231 197 203 195 244 217 259 274 244 178 210 253 206 171 240 255 274 283 284 290 288 262 276 286 280 278 279
312 312 312 314 320 333 343 353 359 9 71 296 315 289 280 172 211 212 213 226 220 202 226 293 228 178 192 55 31 17 328 324 345 267 283 284 287 291 277 282 293 280 270 289 293 292 308
304 305 302 307 311 325 337 349 358 8 22 82 326 300 272 249 228 220 322 204 230 203 258 177 257 235 77 125 220 254 270 263 276 276 277 279 273 278 277 279 268 268 52 327 304 307 297
294 294 294 299 298 316 328 341 350 359 5 30 341 309 287 275 199 160 228 191 183 170 204 146 71 74 123 190 253 237 243 230 245 253 299 284 274 270 272 262 277 271 111 345 350 324 358
284 285 287 287 287 304 314 330 342 348 356 17 319 338 280 296 112 355 198 200 193 185 155 130 121 115 203 270 249 261 267 293 277 205 195 306 267 260 251 267 282 63 66 19 4 280 34
275 276 279 277 283 295 295 314 329 342 349 351 269 340 280 269 67 309 293 279 302 226 196 146 154 179 245 262 254 268 270 11 272 269 239 229 258 242 241 255 244 54 12 335 271 33 349
265 269 274 274 278 288 277 294 316 336 348 8 253 328 228 273 80 351 343 343 275 260 286 112 200 215 241 257 264 278 239 264 258 278 313 260 262 263 224 280 265 22 292 337 11 323 333
261 267 269 272 272 278 268 270 297 321 343 18 56 328 248 255 23 197 200 70 34 14 338 197 6 342 11 271 307 299 251 251 279 270 166 259 341 339 338 33 113 341 337 341 319 312 310